Date String (YYYY-MM-DD hh:mm:ss) UTC,Instrument flags,Ambient pressure (hPa),Sample flow (lpm),Bypass flow (lpm),Sample temperature (°C),Ambient temperature (°C),ASC tube jacket temperature (°C),LED temperature (°C),Box temperature (°C),Sample RH (%),Span deviation,Mass concentration (μg/m³),Mass concentration (μg/m³),Mass concentration (μg/m³)
DateTimeUTC,F1_M11,P_M11,Q1_M11,Q2_M11,T1_M11,T2_M11,T3_M11,T4_M11,T5_M11,U1_M11,ZSPAN_M11,X0_M11,X2_M11,X1_M11
2021-11-18 18:00:00,,0832.4,4.98,0.00,23.9,23.1,00.0,32.8,25.6,08.9,0000.0,0015.37,0004.75,0003.61
2021-11-18 18:01:00,,0832.5,5.01,0.00,23.9,23.1,00.0,32.8,25.7,08.9,0000.0,0015.34,0004.77,0003.61
2021-11-18 18:02:00,,0832.4,5.00,0.00,23.9,23.1,00.0,32.8,25.7,08.9,0000.0,0015.31,0004.73,0003.60
2021-11-18 18:03:00,,0832.4,5.02,0.00,23.9,23.1,00.0,32.8,25.7,08.9,0000.0,0015.68,0004.71,0003.59
2021-11-18 18:04:00,,0832.3,4.99,0.00,23.9,23.1,00.0,32.8,25.7,08.8,0000.0,0016.22,0004.67,0003.57
2021-11-18 18:05:00,,0832.3,5.02,0.00,23.9,23.1,00.0,32.9,25.8,08.7,0000.0,0017.10,0004.72,0003.58
2021-11-18 18:06:00,,0832.3,5.00,0.00,23.9,23.2,00.0,32.9,25.8,08.7,0000.0,0017.45,0004.75,0003.58
2021-11-18 18:07:00,,0832.3,5.01,0.00,24.0,23.2,00.0,32.9,25.8,08.6,0000.0,0017.55,0004.74,0003.57
2021-11-18 18:08:00,,0832.2,4.99,0.00,24.0,23.2,00.0,32.9,25.8,08.6,0000.0,0017.17,0004.71,0003.56
2021-11-18 18:09:00,,0832.2,5.01,0.00,24.0,23.2,00.0,32.9,25.9,08.4,0000.0,0017.20,0004.62,0003.55
2021-11-18 18:10:00,,0832.2,4.99,0.00,24.0,23.2,00.0,32.9,25.9,08.4,0000.0,0017.29,0004.59,0003.54
2021-11-18 18:11:00,,0832.1,5.00,0.00,24.0,23.3,00.0,32.9,25.9,08.4,0000.0,0017.18,0004.59,0003.53
2021-11-18 18:12:00,,0832.1,5.01,0.00,24.0,23.3,00.0,32.9,25.9,08.4,0000.0,0017.02,0004.53,0003.50
2021-11-18 18:13:00,,0832.1,4.99,0.00,24.0,23.3,00.0,32.9,25.9,08.2,0000.0,0017.44,0004.53,0003.48
2021-11-18 18:14:00,,0832.1,5.01,0.00,24.1,23.3,00.0,33.0,25.9,08.2,0000.0,0017.89,0004.55,0003.46
2021-11-18 18:15:00,,0832.1,4.99,0.00,24.1,23.3,00.0,33.0,26.0,08.2,0000.0,0016.30,0004.52,0003.45
2021-11-18 18:16:00,,0832.0,5.00,0.00,24.1,23.4,00.0,33.0,26.0,08.2,0000.0,0015.43,0004.44,0003.44
2021-11-18 18:17:00,,0831.9,5.00,0.00,24.1,23.4,00.0,33.0,26.0,08.2,0000.0,0015.78,0004.39,0003.42
2021-11-18 18:18:00,,0832.0,4.99,0.00,24.1,23.4,00.0,33.0,26.0,08.2,0000.0,0015.64,0004.35,0003.42
2021-11-18 18:19:00,,0831.9,5.01,0.00,24.1,23.4,00.0,33.0,26.0,08.2,0000.0,0014.83,0004.32,0003.42
2021-11-18 18:20:00,,0831.9,4.99,0.00,24.2,23.4,00.0,33.0,26.0,08.2,0000.0,0014.69,0004.30,0003.41
2021-11-18 18:21:00,,0831.9,5.01,0.00,24.2,23.4,00.0,33.0,26.0,08.1,0000.0,0014.11,0004.25,0003.41
2021-11-18 18:22:00,,0831.8,4.99,0.00,24.2,23.4,00.0,33.1,26.0,07.9,0000.0,0014.69,0004.20,0003.41
2021-11-18 18:23:00,,0831.8,5.00,0.00,24.2,23.4,00.0,33.1,26.0,07.8,0000.0,0015.99,0004.20,0003.41
2021-11-18 18:24:00,,0831.7,5.00,0.00,24.2,23.4,00.0,33.1,26.0,08.0,0000.0,0015.89,0004.18,0003.42
2021-11-18 18:25:00,,0831.7,5.00,0.00,24.2,23.4,00.0,33.1,26.0,08.1,0000.0,0014.11,0004.16,0003.42
2021-11-18 18:26:00,,0831.7,5.01,0.00,24.2,23.4,00.0,33.1,26.1,08.2,0000.0,0014.66,0004.15,0003.43
2021-11-18 18:27:00,,0831.7,4.99,0.00,24.2,23.4,00.0,33.1,26.1,08.2,0000.0,0015.61,0004.19,0003.44
2021-11-18 18:28:00,,0831.6,5.00,0.00,24.2,23.4,00.0,33.1,26.1,08.1,0000.0,0014.78,0004.20,0003.45
2021-11-18 18:29:00,,0831.5,5.01,0.00,24.2,23.5,00.0,33.1,26.1,08.1,0000.0,0014.36,0004.24,0003.45
2021-11-18 18:30:00,,0831.5,5.01,0.00,24.2,23.5,00.0,33.2,26.1,08.1,0000.0,0014.81,0004.28,0003.45
2021-11-18 18:31:00,,0831.5,5.00,0.00,24.3,23.5,00.0,33.2,26.1,07.9,0000.0,0015.00,0004.29,0003.45
2021-11-18 18:32:00,,0831.5,5.01,0.00,24.3,23.5,00.0,33.2,26.2,07.8,0000.0,0014.49,0004.31,0003.44
2021-11-18 18:33:00,,0831.4,4.99,0.00,24.3,23.5,00.0,33.2,26.2,07.9,0000.0,0014.20,0004.37,0003.44
2021-11-18 18:34:00,,0831.4,5.01,0.00,24.3,23.5,00.0,33.2,26.2,08.0,0000.0,0012.39,0004.37,0003.45
2021-11-18 18:35:00,,0831.3,5.00,0.00,24.3,23.5,00.0,33.2,26.2,07.8,0000.0,0012.56,0004.41,0003.46
2021-11-18 18:36:00,,0831.3,5.01,0.00,24.3,23.5,00.0,33.2,26.2,07.7,0000.0,0013.25,0004.44,0003.45
2021-11-18 18:37:00,,0831.3,4.99,0.00,24.3,23.6,00.0,33.2,26.2,07.6,0000.0,0012.66,0004.42,0003.45
2021-11-18 18:38:00,,0831.2,5.00,0.00,24.3,23.6,00.0,33.3,26.2,07.6,0000.0,0011.93,0004.40,0003.43
2021-11-18 18:39:00,,0831.2,4.99,0.00,24.4,23.6,00.0,33.3,26.3,07.6,0000.0,0012.94,0004.41,0003.43
2021-11-18 18:40:00,,0831.3,5.00,0.00,24.4,23.6,00.0,33.3,26.3,07.6,0000.0,0014.12,0004.41,0003.43
2021-11-18 18:41:00,,0831.4,5.01,0.00,24.4,23.6,00.0,33.3,26.3,07.5,0000.0,0013.81,0004.40,0003.44
2021-11-18 18:42:00,,0831.2,4.99,0.00,24.4,23.6,00.0,33.3,26.3,07.5,0000.0,0013.75,0004.43,0003.45
2021-11-18 18:43:00,,0831.2,4.99,0.00,24.4,23.5,00.0,33.3,26.3,07.6,0000.0,0013.75,0004.47,0003.47
2021-11-18 18:44:00,,0831.2,5.00,0.00,24.4,23.5,00.0,33.3,26.3,07.7,0000.0,0014.30,0004.46,0003.48
2021-11-18 18:45:00,,0831.2,5.00,0.00,24.4,23.5,00.0,33.3,26.3,07.7,0000.0,0014.73,0004.46,0003.50
2021-11-18 18:46:00,,0831.2,5.01,0.00,24.4,23.5,00.0,33.3,26.2,07.7,0000.0,0014.15,0004.46,0003.54
2021-11-18 18:47:00,,0831.2,4.99,0.00,24.4,23.5,00.0,33.3,26.2,07.7,0000.0,0013.57,0004.48,0003.58
2021-11-18 18:48:00,,0831.2,4.99,0.00,24.4,23.5,00.0,33.3,26.2,07.7,0000.0,0013.66,0004.53,0003.61
2021-11-18 18:49:00,,0831.4,5.02,0.00,24.3,23.5,00.0,33.3,26.1,07.8,0000.0,0013.58,0004.56,0003.63
2021-11-18 18:50:00,,0831.2,4.99,0.00,24.3,23.5,00.0,33.3,26.1,07.8,0000.0,0012.72,0004.58,0003.66
2021-11-18 18:51:00,,0831.2,5.01,0.00,24.3,23.5,00.0,33.3,26.1,07.9,0000.0,0011.54,0004.58,0003.69
2021-11-18 18:52:00,,0831.2,5.01,0.00,24.3,23.5,00.0,33.3,26.1,07.9,0000.0,0011.43,0004.61,0003.71
2021-11-18 18:53:00,,0831.2,4.99,0.00,24.3,23.5,00.0,33.3,26.1,07.8,0000.0,0010.94,0004.58,0003.73
2021-11-18 18:54:00,,0831.1,5.00,0.00,24.3,23.5,00.0,33.3,26.2,07.8,0000.0,0011.12,0004.58,0003.76
2021-11-18 18:55:00,,0831.0,5.00,0.00,24.3,23.5,00.0,33.3,26.2,07.9,0000.0,0011.00,0004.65,0003.78
2021-11-18 18:56:00,,0831.0,5.01,0.00,24.3,23.5,00.0,33.3,26.1,07.9,0000.0,0010.62,0004.66,0003.79
2021-11-18 18:57:00,,0830.9,4.99,0.00,24.3,23.5,00.0,33.3,26.1,07.9,0000.0,0010.43,0004.73,0003.80
2021-11-18 18:58:00,,0830.9,5.00,0.00,24.3,23.5,00.0,33.3,26.1,07.9,0000.0,0010.34,0004.71,0003.80
2021-11-18 18:59:00,,0830.9,5.00,0.00,24.3,23.5,00.0,33.3,26.1,08.0,0000.0,0010.57,0004.72,0003.81
